Regional Weather Roundup
Issued by NWS

Home | Current Version | Previous Version | Graphics & Text | Print | Product List | Glossary On
Versions: 1 2 3 4 5 6 7 8 9 10 11 12 13 14 15 16 17 18 19 20 21 22 23 24 25 26 27
000
ASUS45 KBOU 240507
RWRCO

WEATHER ROUNDUP FOR COLORADO
NATIONAL WEATHER SERVICE DENVER/BOULDER CO
1100 PM MDT MON MAY 23 2016

NOTE: "FAIR" INDICATES FEW OR NO CLOUDS BELOW 12000 FEET WITH NO
SIGNIFICANT WEATHER AND/OR OBSTRUCTIONS TO VISIBILITY.

COZ001>005-013-030-031-240600-
...NORTHWEST COLORADO...

CITY           SKY/WX    TMP DP  RH WIND       PRES   REMARKS
CRAIG          FAIR      45  33  63 CALM      29.95R
HAYDEN         FAIR      45  28  53 S3        29.95S
MEEKER         MOCLDY    48  33  56 SE3       29.95R
MOUNT WERNER   NOT AVBL
STEAMBOAT SPGS FAIR      44  30  56 CALM      29.97S
WALDEN         FAIR      39  25  56 CALM      30.06R
$$

COZ006>008-011-240600-
...WEST CENTRAL VALLEYS...

CITY           SKY/WX    TMP DP  RH WIND       PRES   REMARKS
GRAND JUNCTION FAIR      56  21  25 E5        29.85R
MONTROSE       FAIR      54  23  30 SE12      29.93R
EAGLE          FAIR      50  28  43 E3        29.98R
RIFLE          FAIR      50  32  50 E5        29.90R
DELTA          FAIR      57  19  23 NE7       29.88R
NUCLA          FAIR      52  21  30 E12       29.94S
$$

COZ017>023-064>068-240600-
...SOUTHWEST COLORADO...

CITY           SKY/WX    TMP DP  RH WIND       PRES   REMARKS
DURANGO        FAIR      46  25  43 N5        29.97R
CORTEZ         FAIR      45  23  42 CALM      29.92R
PAGOSA SPRINGS FAIR      44  26  49 CALM      30.04R
TELLURIDE      FAIR      47  17  30 SE8       30.10S
WOLF CREEK PAS FAIR      34  16  47 SW14G22   30.26S WCI  24
$$

COZ009-010-012-014-032>034-037-058>063-240600-
...CENTRAL COLORADO...

CITY           SKY/WX    TMP DP  RH WIND       PRES   REMARKS
ASPEN          FAIR      46  23  40 SW7       30.01R
BUENA VISTA    FAIR      43  21  41 SW3       30.05R
COPPER MTN     NOT AVBL
BERTHOUD PASS  FAIR      32  21  64 SW8       30.24F WCI  25
COTTONWOOD PAS FAIR      50  10  20 SW8       30.14R
GUNNISON       FAIR      45  19  36 N3        30.06R
KREMMLING      FAIR      41  30  65 CALM      30.02S
LEADVILLE      FAIR      36  17  46 SW5       30.12R
MONARCH PASS   FAIR      34  18  51 MISG      30.33S
SALIDA         NOT AVBL
SUNLIGHT       FAIR      37  21  52 CALM      30.18S
WILKERSON PASS FAIR      37  27  65 S5        30.23S
$$

COZ069>075-240600-
...SAN LUIS VALLEY/SANGRE DE CRISTO MOUNTAINS...

CITY           SKY/WX    TMP DP  RH WIND       PRES   REMARKS
ALAMOSA        FAIR      43  32  65 CALM      30.01R
LA VETA PASS   FAIR      45  18  33 S12       30.16S
SAGUACHE       FAIR      45  21  39 N9        30.04S
$$

COZ035-036-038>040-240600-
...NORTHERN COLORADO FRONT RANGE...

CITY           SKY/WX    TMP DP  RH WIND       PRES   REMARKS
DENVER INTL AP FAIR      51  42  71 SE3       29.95S
DMNS CITY PARK   N/A     51  46  83 E9        29.96S
AURORA         MOCLDY    48  43  81 SE3       29.97R
FRONT RANGE AP NOT AVBL
ERIE MUNI ARPT FAIR      48  45  88 CALM      29.95R
BOULDER MUN AP FAIR      54  43  66 CALM      29.96R
CENTENNIAL     MOCLDY    52  41  66 CALM      29.97R
BROOMFIELD     NOT AVBL
FORT COLLINS   FAIR      54  43  66 CALM      29.96R
LONGMONT       FAIR      50  43  77 NW6       29.97S
$$

COZ041-046-047-076>085-087-088-240600-
...PIKES PEAK/PALMER DIVIDE AND SOUTHERN FOOTHILLS...

CITY           SKY/WX    TMP DP  RH WIND       PRES   REMARKS
COLO. SPRINGS  FAIR      55  40  56 N9        29.97R
A. F. ACADEMY  FAIR      48  39  71 N9        29.98S
SCHRIEVER AFB  NOT AVBL
ELLICOTT       FAIR     N/A N/A N/A N8        29.94R
FALCON         FAIR      51  40  66 N12       30.01R
FORT CARSON    FAIR      56  41  56 N13       29.93R
LIMON          FAIR      52  42  69 VRB6      29.93R
MONUMENT HILL  FAIR      43  37  81 NW5       30.03S
TRINIDAD       FAIR      54  29  38 W14       29.91R
$$

COZ042>045-048>051-090-091-240600-
...NORTHEAST COLORADO...

CITY           SKY/WX    TMP DP  RH WIND       PRES   REMARKS
GREELEY ARPT   FAIR      52  43  71 S3        29.94R
AKRON          MOCLDY    52  45  77 NE12      29.90F
BURLINGTON     FAIR      57  47  69 NE9       29.87R
WRAY           FAIR      50  45  81 N12       29.89S
STERLING       MOCLDY    50  45  81 NE3       29.90S
HOLYOKE        FAIR      54  50  87 CALM      29.89F
FORT MORGAN    FAIR      48  42  77 NE8       29.93R
$$

COZ086-089-092>099-240600-
...SOUTHEAST COLORADO...

CITY           SKY/WX    TMP DP  RH WIND       PRES   REMARKS
PUEBLO         FAIR      63  43  48 N17       29.85R
LA JUNTA       FAIR      66  51  58 E12       29.80S
LAMAR          FAIR      62  54  74 E9        29.77R
SPRINGFIELD      N/A     55  43  63 W5        29.80R
$$




USA.gov is the U.S. government's official web portal to all federal, state and local government web resources and services.